Kingstree, SC

8:19 AM EST on December 15, 2019 (GMT -0500)
Williamsburg County

Weather History for KCKI - October, 2019

Change the Weather History Date:

Sunday, October 13, 2019

  Actual Average Record
Temperature  
Mean Temperature 70 °F -  
Max Temperature 82 °F 77 °F 86 °F (2014)
Min Temperature 57 °F 47 °F 51 °F (2016)
Cooling Degree Days 4    
Growing Degree Days 20 (Base 50)    
Moisture  
Dew Point 63 °F    
Average Humidity 78    
Maximum Humidity 100    
Minimum Humidity 51    
Precipitation  
Precipitation 0.00 in - - ()
Sea Level Pressure  
Sea Level Pressure 30.04 in    
Wind  
Wind Speed 2 mph ()    
Max Wind Speed 9 mph    
Max Gust Speed -    
Visibility 9.4 miles    
Events Rain    
Averages and records for this station are not official NWS values.
T = Trace of Precipitation, MM = Missing Value Source: Averaged Metar Reports

Daily Weather History Graph

Daily Weather History Graph

Search for Another Location

Airport or City:

Astronomy

Oct. 13, 2019 Rise Set
Actual Time 7:22 AM EDT 6:48 PM EDT
Civil Twilight 6:57 AM EDT 7:13 PM EDT
Nautical Twilight 6:28 AM EDT 7:42 PM EDT
Astronomical Twilight 5:59 AM EDT 8:11 PM EDT
Moon 7:07 PM EDT (10/13) 6:59 AM EDT (10/13)
Length of Visible Light 12h 15m
Length of Day
11h 25m
Full, 100% of the Moon is Illuminated
Oct 13
Full
Oct 13
Full
Oct 21
Last Quarter
Oct 27
New
Nov 4
First Quarter

Hourly Weather History & Observations

Time (EDT) Temp. Heat Index Dew Point Humidity Pressure Visibility Wind Dir Wind Speed Gust Speed Precip Events Conditions
12:15 AM 62.6 °F - 60.8 °F 94% 30.04 in 7.0 mi Calm Calm - N/A   Clear
12:35 AM 60.8 °F - 60.8 °F 100% 30.04 in 7.0 mi Calm Calm - N/A   Clear
12:55 AM 60.8 °F - 59.0 °F 94% 30.03 in 10.0 mi Calm Calm - N/A   Clear
1:35 AM 60.8 °F - 59.0 °F 94% 30.04 in 10.0 mi Calm Calm - N/A   Clear
1:55 AM 60.8 °F - 60.8 °F 100% 30.04 in 10.0 mi Calm Calm - N/A   Clear
2:15 AM 62.6 °F - 60.8 °F 94% 30.03 in 10.0 mi Calm Calm - N/A   Clear
2:35 AM 62.6 °F - 60.8 °F 94% 30.03 in 10.0 mi Calm Calm - N/A   Clear
2:55 AM 62.6 °F - 60.8 °F 94% 30.03 in 10.0 mi Calm Calm - N/A   Clear
3:15 AM 62.6 °F - 60.8 °F 94% 30.03 in 10.0 mi Calm Calm - N/A   Clear
3:35 AM 60.8 °F - 59.0 °F 94% 30.02 in 10.0 mi Calm Calm - N/A   Clear
3:55 AM 60.8 °F - 59.0 °F 94% 30.03 in 10.0 mi Calm Calm - N/A   Scattered Clouds
4:15 AM 59.0 °F - 59.0 °F 100% 30.03 in 10.0 mi Calm Calm - N/A   Scattered Clouds
4:35 AM 59.0 °F - 55.4 °F 88% 30.03 in 10.0 mi Calm Calm - N/A   Clear
4:55 AM 59.0 °F - 57.2 °F 94% 30.04 in 10.0 mi Calm Calm - N/A   Mostly Cloudy
5:15 AM 57.2 °F - 55.4 °F 94% 30.04 in 10.0 mi Calm Calm - N/A   Scattered Clouds
5:35 AM 57.2 °F - 55.4 °F 94% 30.04 in 10.0 mi Calm Calm - N/A   Clear
5:55 AM 59.0 °F - 57.2 °F 94% 30.04 in 10.0 mi Calm Calm - N/A   Scattered Clouds
6:15 AM 59.0 °F - 59.0 °F 100% 30.05 in 10.0 mi Calm Calm - N/A   Clear
6:35 AM 59.0 °F - 59.0 °F 100% 30.05 in 10.0 mi Calm Calm - N/A   Scattered Clouds
6:55 AM 59.0 °F - 59.0 °F 100% 30.05 in 10.0 mi Calm Calm - N/A   Scattered Clouds
7:15 AM 59.0 °F - 59.0 °F 100% 30.05 in 10.0 mi Calm Calm - N/A   Clear
7:35 AM 59.0 °F - 57.2 °F 94% 30.06 in 10.0 mi Calm Calm - N/A   Clear
7:55 AM 59.0 °F - 59.0 °F 100% 30.06 in 10.0 mi Calm Calm - N/A   Clear
8:15 AM 62.6 °F - 60.8 °F 94% 30.06 in 10.0 mi Calm Calm - N/A   Clear
8:35 AM 66.2 °F - 64.4 °F 94% 30.06 in 10.0 mi Calm Calm - N/A   Clear
8:55 AM 69.8 °F - 66.2 °F 88% 30.07 in 10.0 mi Calm Calm - N/A   Clear
9:15 AM 71.6 °F - 66.2 °F 83% 30.07 in 10.0 mi Calm Calm - N/A   Clear
9:35 AM 71.6 °F - 66.2 °F 83% 30.08 in 7.0 mi Calm Calm - N/A   Clear
9:55 AM 73.4 °F - 66.2 °F 78% 30.08 in 10.0 mi SSW 6.9 mph - N/A   Scattered Clouds
10:15 AM 77.0 °F - 66.2 °F 69% 30.08 in 10.0 mi South 5.8 mph - N/A   Scattered Clouds
10:35 AM 77.0 °F - 66.2 °F 69% 30.08 in 10.0 mi SW 4.6 mph - N/A   Clear
10:55 AM 78.8 °F - 64.4 °F 61% 30.08 in 10.0 mi South 8.1 mph - N/A   Scattered Clouds
11:15 AM 77.0 °F - 64.4 °F 65% 30.08 in 7.0 mi South 8.1 mph - N/A   Clear
11:35 AM 78.8 °F - 64.4 °F 61% 30.08 in 10.0 mi South 9.2 mph - N/A   Clear
11:55 AM 78.8 °F - 62.6 °F 57% 30.07 in 10.0 mi SW 4.6 mph - N/A   Scattered Clouds
12:15 PM 78.8 °F - 64.4 °F 61% 30.07 in 7.0 mi South 4.6 mph - N/A   Mostly Cloudy
12:35 PM 80.6 °F 81.8 °F 62.6 °F 54% 30.06 in 7.0 mi SW 5.8 mph - N/A   Scattered Clouds
12:55 PM 80.6 °F 81.8 °F 62.6 °F 54% 30.05 in 7.0 mi Calm Calm - N/A   Scattered Clouds
1:15 PM 80.6 °F 81.8 °F 62.6 °F 54% 30.05 in 5.0 mi Calm Calm - N/A   Haze
1:35 PM 80.6 °F 81.5 °F 60.8 °F 51% 30.04 in 10.0 mi SSE 6.9 mph - N/A   Overcast
2:15 PM 80.6 °F 81.8 °F 62.6 °F 54% 30.03 in 10.0 mi SSW 4.6 mph - N/A   Overcast
2:35 PM 80.6 °F 81.8 °F 62.6 °F 54% 30.02 in 7.0 mi Calm Calm - N/A   Overcast
2:55 PM 80.6 °F 81.8 °F 62.6 °F 54% 30.01 in 7.0 mi SSE 3.5 mph - N/A   Scattered Clouds
3:15 PM 82.4 °F 83.4 °F 62.6 °F 51% 30.01 in 10.0 mi South 3.5 mph - N/A   Clear
3:35 PM 80.6 °F 81.5 °F 60.8 °F 51% 30.00 in 10.0 mi South 3.5 mph - N/A   Clear
3:55 PM 80.6 °F 81.5 °F 60.8 °F 51% 30.00 in 10.0 mi SSE 6.9 mph - N/A   Clear
4:15 PM 80.6 °F 81.5 °F 60.8 °F 51% 29.99 in 7.0 mi SSE 5.8 mph - N/A   Clear
4:35 PM 80.6 °F 81.5 °F 60.8 °F 51% 29.99 in 7.0 mi SE 5.8 mph - N/A   Clear
4:55 PM 80.6 °F 81.5 °F 60.8 °F 51% 30.00 in 10.0 mi SSE 4.6 mph - N/A   Clear
5:15 PM 80.6 °F 81.8 °F 62.6 °F 54% 30.01 in 10.0 mi SSE 4.6 mph - N/A   Clear
5:35 PM 80.6 °F 81.8 °F 62.6 °F 54% 30.01 in 10.0 mi SSE 5.8 mph - N/A   Clear
5:55 PM 78.8 °F - 62.6 °F 57% 30.01 in 10.0 mi SE 4.6 mph - N/A   Scattered Clouds
6:15 PM 78.8 °F - 64.4 °F 61% 30.00 in 7.0 mi SE 4.6 mph - N/A   Clear
6:35 PM 77.0 °F - 64.4 °F 65% 30.00 in 10.0 mi SE 4.6 mph - N/A   Clear
6:55 PM 75.2 °F - 64.4 °F 69% 30.00 in 10.0 mi SE 4.6 mph - N/A   Clear
7:15 PM 75.2 °F - 66.2 °F 73% 30.00 in 10.0 mi SE 6.9 mph - N/A   Clear
7:35 PM 75.2 °F - 68.0 °F 78% 30.00 in 10.0 mi SE 8.1 mph - N/A   Scattered Clouds
7:55 PM 73.4 °F - 68.0 °F 83% 30.00 in 10.0 mi SE 5.8 mph - N/A   Scattered Clouds
8:15 PM 73.4 °F - 68.0 °F 83% 30.01 in 10.0 mi SSE 5.8 mph - N/A   Scattered Clouds
8:35 PM 73.4 °F - 68.0 °F 83% 30.02 in 10.0 mi South 6.9 mph - N/A   Mostly Cloudy
8:55 PM 73.4 °F - 68.0 °F 83% 30.02 in 10.0 mi SSE 4.6 mph - N/A   Overcast
9:15 PM 73.4 °F - 68.0 °F 83% 30.03 in 10.0 mi SSE 5.8 mph - N/A   Overcast
9:35 PM 73.4 °F - 68.0 °F 83% 30.03 in 10.0 mi SSE 3.5 mph - N/A   Overcast
9:55 PM 73.4 °F - 68.0 °F 83% 30.03 in 10.0 mi Calm Calm - N/A   Overcast
10:15 PM 73.4 °F - 68.0 °F 83% 30.04 in 10.0 mi Calm Calm - N/A Rain Light Rain
10:35 PM 71.6 °F - 69.8 °F 94% 30.04 in 10.0 mi Calm Calm - N/A   Overcast
10:55 PM 71.6 °F - 69.8 °F 94% 30.04 in 10.0 mi Calm Calm - N/A   Overcast
11:15 PM 71.6 °F - 69.8 °F 94% 30.04 in 10.0 mi Calm Calm - N/A   Overcast
11:35 PM 71.6 °F - 69.8 °F 94% 30.04 in 10.0 mi Calm Calm - N/A Rain Light Rain
11:55 PM 71.6 °F - 69.8 °F 94% 30.05 in 10.0 mi Calm Calm - N/A   Light Drizzle